History for Ft Lauderdale, FL

Thursday, March 23, 2017 — View Current Conditions

Jump to Data:

Date:
Airport Code:
Recently Viewed Airport Codes: KFLL
Daily Summary
  Actual Average Record
Temperature
Mean Temperature 73°F 74°F  
Max Temperature 82°F 80°F 90°F (1839)
Min Temperature 64°F 67°F 41°F (1960)
Degree Days
Heating Degree Days 0 0  
Month to date heating degree days 6 7  
Since 1 July heating degree days 35 109  
Cooling Degree Days 8 9  
Month to date cooling degree days 163 182  
Year to date cooling degree days 619 538  
Growing Degree Days 22 (Base 50)    
Moisture
Dew Point 64°F    
Average Humidity 74    
Maximum Humidity 90    
Minimum Humidity 58    
Precipitation
Precipitation 0.45 in 0.11 in 2.70 in (1984)
Month to date precipitation 1.14 2.42  
Year to date precipitation 4.42 9.01  
Snow
Snow 0.00 in in in ()
Month to date snowfall 0.0  
Since 1 July snowfall 0.0  
Snow Depth 0.00 in    
Sea Level Pressure
Sea Level Pressure 30.17 in    
Wind
Wind Speed 11 mph (ENE)    
Max Wind Speed 26 mph    
Max Gust Speed 35 mph    
Visibility 10 miles    
Events Rain , Thunderstorm    
T = Trace of Precipitation, MM = Missing Value Source: NWS Daily Summary

Show full METARS

(help) - Comma Delimited File

Hourly Observations

Time(EDT) Temperature Dew Point Humidity Sea Level Pressure Visibility Wind Direction Wind Speed Gust Speed Precipitation Events Conditions
12:53 AM 70.0°F 57.9°F 65% 30.12 in 10.0 miles WSW 4.6 mph - N/A   Clear
1:53 AM 69.1°F 57.9°F 68% 30.12 in 10.0 miles West 8.1 mph - N/A   Clear
2:53 AM 66.9°F 57.9°F 73% 30.11 in 10.0 miles West 4.6 mph - N/A   Clear
3:53 AM 66.9°F 59.0°F 76% 30.10 in 10.0 miles Calm Calm - N/A   Clear
4:53 AM 66.0°F 59.0°F 78% 30.09 in 10.0 miles West 3.5 mph - N/A   Clear
5:53 AM 64.9°F 60.1°F 84% 30.10 in 10.0 miles NW 3.5 mph - N/A   Mostly Cloudy
6:53 AM 64.0°F 60.1°F 87% 30.11 in 10.0 miles NW 3.5 mph - N/A   Partly Cloudy
7:53 AM 64.9°F 61.0°F 87% 30.13 in 10.0 miles WNW 3.5 mph - N/A   Clear
8:53 AM 69.1°F 63.0°F 81% 30.15 in 10.0 miles Calm Calm - N/A   Clear
9:53 AM 73.9°F 64.0°F 71% 30.15 in 10.0 miles Calm Calm - N/A   Partly Cloudy
10:53 AM 79.0°F 64.9°F 62% 30.19 in 10.0 miles Variable 5.8 mph - N/A   Partly Cloudy
11:53 AM 81.0°F 64.9°F 58% 30.19 in 10.0 miles ENE 13.8 mph - N/A   Scattered Clouds
12:31 PM 78.1°F 64.0°F 62% 30.20 in 10.0 miles NE 17.3 mph 26.5 mph N/A Thunderstorm Mostly Cloudy
12:53 PM 78.1°F 62.1°F 58% 30.19 in 10.0 miles ENE 15.0 mph - 0.00 in   Mostly Cloudy
1:07 PM 79.0°F 62.1°F 56% 30.19 in 10.0 miles ENE 15.0 mph - N/A Thunderstorm Scattered Clouds
1:26 PM 79.0°F 66.0°F 64% 30.17 in 10.0 miles East 12.7 mph - N/A   Scattered Clouds
1:53 PM 80.1°F 66.9°F 64% 30.17 in 10.0 miles East 15.0 mph 20.7 mph N/A   Scattered Clouds
2:53 PM 81.0°F 66.0°F 60% 30.16 in 10.0 miles East 18.4 mph 24.2 mph N/A   Mostly Cloudy
3:53 PM 77.0°F 64.9°F 66% 30.16 in 10.0 miles ENE 12.7 mph - 0.00 in Rain , Thunderstorm Light Rain
4:03 PM 77.0°F 64.0°F 64% 30.16 in 10.0 miles ENE 12.7 mph - 0.00 in Thunderstorm Thunderstorm
4:28 PM 80.1°F 66.0°F 62% 30.15 in 10.0 miles NE 15.0 mph 21.9 mph 0.00 in   Scattered Clouds
4:53 PM 73.9°F 64.0°F 71% 30.15 in 10.0 miles ENE 12.7 mph 25.3 mph 0.00 in   Scattered Clouds
5:38 PM 75.9°F 64.9°F 69% 30.15 in 10.0 miles ENE 17.3 mph 25.3 mph 0.00 in   Mostly Cloudy
5:53 PM 73.9°F 64.9°F 73% 30.16 in 10.0 miles ENE 23.0 mph 33.4 mph 0.00 in   Mostly Cloudy
5:56 PM 73.9°F 64.9°F 73% 30.15 in 10.0 miles ENE 24.2 mph 33.4 mph N/A   Scattered Clouds
6:05 PM 73.0°F 66.0°F 79% 30.16 in 10.0 miles ENE 17.3 mph 31.1 mph N/A   Mostly Cloudy
6:23 PM 73.0°F 64.9°F 76% 30.16 in 10.0 miles East 18.4 mph 27.6 mph N/A   Mostly Cloudy
6:53 PM 73.0°F 64.9°F 76% 30.19 in 10.0 miles ENE 16.1 mph - N/A   Mostly Cloudy
7:17 PM 73.9°F 66.0°F 76% 30.19 in 10.0 miles East 17.3 mph 25.3 mph N/A   Overcast
7:20 PM 73.9°F 64.9°F 73% 30.19 in 10.0 miles East 20.7 mph 26.5 mph N/A   Overcast
7:38 PM 73.0°F 64.9°F 76% 30.18 in 10.0 miles ENE 13.8 mph 26.5 mph 0.01 in Rain , Thunderstorm Light Rain
7:40 PM 73.0°F 64.9°F 76% 30.18 in 10.0 miles ENE 16.1 mph 26.5 mph 0.01 in Rain , Thunderstorm Light Thunderstorms and Rain
7:53 PM 72.0°F 66.0°F 81% 30.18 in 10.0 miles ENE 16.1 mph - 0.03 in Rain , Thunderstorm Light Thunderstorms and Rain
8:38 PM 71.1°F 66.0°F 84% 30.20 in 2.0 miles NE 18.4 mph 28.8 mph 0.17 in Rain , Thunderstorm Heavy Thunderstorms and Rain
8:53 PM 70.0°F 66.9°F 90% 30.21 in 9.0 miles NE 13.8 mph 25.3 mph 0.36 in Rain , Thunderstorm Light Thunderstorms and Rain
9:03 PM 70.0°F 66.9°F 90% 30.21 in 10.0 miles NE 15.0 mph 23.0 mph 0.01 in Rain , Thunderstorm Light Rain
9:05 PM 71.1°F 66.9°F 87% 30.21 in 10.0 miles ENE 17.3 mph 25.3 mph 0.01 in Rain , Thunderstorm Light Rain
9:10 PM 71.1°F 66.0°F 84% 30.21 in 10.0 miles ENE 16.1 mph 28.8 mph 0.01 in Rain , Thunderstorm Light Rain
9:29 PM 71.1°F 64.9°F 81% 30.21 in 10.0 miles ENE 20.7 mph 28.8 mph 0.01 in Rain Light Rain
9:53 PM 71.1°F 64.9°F 81% 30.22 in 10.0 miles ENE 17.3 mph 27.6 mph 0.06 in   Overcast
10:53 PM 72.0°F 64.0°F 76% 30.24 in 10.0 miles ENE 18.4 mph 29.9 mph N/A   Overcast
11:53 PM 70.0°F 64.0°F 81% 30.24 in 10.0 miles ENE 17.3 mph 32.2 mph 0.00 in Rain Light Rain